EW7034 Weather Reports


time (UTC)temp
C
wind
direction
speed
KPH
gust
KPH
rain 1hr
cm
rain 24hr
cm
rain mn
cm
humidity
%
barometer
mb
20260503021513 9 0.0 0.0 0.00 0.38 0.00 95 1011.4
20260503020020 9 0.0 0.0 0.00 0.38 0.00 95 1011.5
20260503014520 8 0.0 0.0 0.00 0.38 0.00 95 1011.5
20260503013017 8 0.0 0.0 0.00 0.38 0.00 95 1011.6
20260503011510 8 0.0 0.0 0.00 0.38 0.00 95 1011.7
20260503010020 8 0.0 0.0 0.00 0.38 0.00 95 1011.7
20260503004522 8 0.0 0.0 0.00 0.38 0.00 95 1011.9
20260503003020 8 0.0 0.0 0.00 0.38 0.00 95 1011.8
20260503001520 8 0.0 0.0 0.00 0.38 0.00 95 1011.9
20260503000027 8 0.0 0.0 0.00 0.38 0.00 95 1011.8
20260502234518 8 0.0 0.0 0.00 0.38 0.00 95 1011.9
20260502233023 8 0.0 0.0 0.00 0.38 0.00 95 1012.0
20260502231522 8 0.0 0.0 0.00 0.38 0.00 94 1012.0
20260502230024 8 0.0 0.0 0.00 0.38 0.00 94 1012.0
20260502224517 8 0.0 0.0 0.00 0.38 0.38 94 1012.1
20260502223021 9 0.0 0.0 0.00 0.38 0.38 94 1012.1
20260502221501 9 0.0 0.0 0.00 0.38 0.38 94 1012.1
20260502220000 9 0.0 0.0 0.00 0.38 0.38 94 1012.2
20260502214514 9 0.0 0.0 0.00 0.38 0.38 93 1012.2
20260502213034 9 0.0 0.0 0.00 0.38 0.38 93 1012.3
20260502211503 9 0.0 0.0 0.00 0.38 0.38 93 1012.3
20260502210006 10 0.0 0.0 0.03 0.36 0.36 93 1012.4
20260502204509 10 0.0 0.0 0.05 0.36 0.36 93 1012.5
20260502203012 10 0.0 0.0 0.08 0.36 0.36 93 1012.6
20260502201526 10 0.0 0.0 0.10 0.36 0.36 93 1012.5
20260502200004 10 0.0 0.0 0.08 0.33 0.33 93 1012.6
20260502194507 10 0.0 0.0 0.08 0.30 0.30 92 1012.7
20260502193010 10 0.0 0.0 0.08 0.28 0.28 92 1012.7
20260502191522 10 0.0 0.0 0.08 0.25 0.25 92 1012.7
20260502190023 10 0.0 0.0 0.08 0.23 0.23 91 1012.7
20260502184504 10 0.0 0.0 0.05 0.20 0.20 91 1012.8
20260502183010 11 0.0 0.0 0.05 0.18 0.18 91 1012.8
20260502181513 11 0.0 0.0 0.00 0.15 0.15 91 1012.7
20260502163020 11 0.0 0.0 0.05 0.10 0.10 90 1012.9
20260502161508 11 0.0 0.0 0.10 0.10 0.10 89 1013.0
20260502151519 12 0.0 0.0 0.00 0.00 0.00 87 1013.4
20260502123018 12 0.0 0.0 0.00 0.00 0.00 81 1014.7
20260502121508 12 0.0 0.0 0.00 0.00 0.00 80 1015.0
20260502114510 12 0.0 0.0 0.00 0.00 0.00 75 1015.2
20260502113016 13 0.0 0.0 0.00 0.00 0.00 76 1015.1
20260502111519 13 0.0 0.0 0.00 0.00 0.00 76 1015.1
20260502110004 13 0.0 0.0 0.00 0.00 0.00 78 1014.9
20260502104507 12 0.0 0.0 0.00 0.00 0.00 78 1015.3
20260502103018 13 0.0 0.0 0.00 0.00 0.00 76 1015.3
20260502101515 12 0.0 0.0 0.00 0.00 0.00 79 1015.3
20260502091515 12 0.0 0.0 0.00 0.00 0.00 80 1015.7
20260502071511 10 0.0 0.0 0.00 0.00 0.00 88 1015.9
20260502070016 9 0.0 0.0 0.00 0.00 0.00 88 1016.0
20260502064537 8 0.0 0.0 0.00 0.00 0.00 89 1016.0
20260502063017 8 0.0 0.0 0.00 0.00 0.00 91 1016.1
20260502061514 7 0.0 0.0 0.00 0.00 0.00 91 1016.1
20260502060014 7 0.0 0.0 0.00 0.00 0.00 92 1016.1
20260502054517 6 0.0 0.0 0.00 0.00 0.00 93 1016.1
20260502053017 6 0.0 0.0 0.00 0.00 0.00 92 1016.1
20260502051514 6 0.0 0.0 0.00 0.00 0.00 92 1016.1
20260502050022 6 0.0 0.0 0.00 0.00 0.00 92 1016.3
20260502044514 6 0.0 0.0 0.00 0.00 0.00 91 1016.3
20260502043016 6 0.0 0.0 0.00 0.00 0.00 91 1016.2
20260502041506 6 0.0 0.0 0.00 0.00 0.00 91 1016.2
20260502040012 6 0.0 0.0 0.00 0.00 0.00 91 1016.3
20260502034514 7 0.0 0.0 0.00 0.00 0.00 89 1016.3
20260502033015 7 0.0 0.0 0.00 0.00 0.00 89 1016.4
20260502031504 8 0.0 0.0 0.00 0.00 0.00 88 1016.6
20260502030008 8 0.0 0.0 0.00 0.00 0.00 88 1016.7
20260502024514 9 0.0 0.0 0.00 0.00 0.00 88 1017.0
20260502023015 9 0.0 0.0 0.00 0.00 0.00 89 1017.0